Location: Unspecified
(0.0000°N, 0.0000°E)
Time: 00:47:53
(UTC+00:00)

A-11 Canister half - Pass Details

Date: 10 February 2023
Orbit: 1526 x 1682 km, 47.3° (Epoch: 29 March)

Event Time Altitude Azimuth Distance (km) Brightness Sun altitude
Rises 12:50:04 0° 318° (NW) 4,771 11.5 73.1°
Reaches altitude 10° 12:53:07 10° 317° (NW) 3,807 11.2 72.7°
Maximum altitude 13:02:52 81° 231° (SW) 1,659 11.7 71.3°
Drops below altitude 10° 13:12:58 10° 144° (SE) 3,926 11.3 69.6°
Sets 13:16:09 0° 143° (SE) 4,925 11.7 69.0°
